This is the latest recevied weather packets stored in our database for station/object KJ4RDP-13. If no packets are shown the sender has not sent any weather packets the latest 10 day(s).
| Time | Temp. | Humidity | Pressure | Rain* | Wind** | Luminosity | Snow |
|---|---|---|---|---|---|---|---|
| 1777993421 | 20° C | 55% | 1016.4 hPa | 0 mm | - | 550 W/m² | - |
| 1777993115 | 20° C | 52% | 1016.4 hPa | 0 mm | - | 569 W/m² | - |
| 1777992813 | 20° C | 49% | 1016.4 hPa | 0 mm | - | 652 W/m² | - |
| 1777992511 | 19.44° C | 52% | 1016.4 hPa | 0 mm | - | 594 W/m² | - |
| 1777992209 | 19.44° C | 52% | 1016.4 hPa | 0 mm | - | 602 W/m² | - |
| 1777991906 | 19.44° C | 59% | 1016.4 hPa | 0 mm | - | 594 W/m² | - |
| 1777991603 | 19.44° C | 54% | 1016.4 hPa | 0 mm | - | 551 W/m² | - |
| 1777991300 | 18.89° C | 53% | 1016.4 hPa | 0 mm | - | 568 W/m² | - |
| 1777990998 | 18.89° C | 54% | 1016 hPa | 0 mm | - | 590 W/m² | - |
| 1777990694 | 19.44° C | 54% | 1016.4 hPa | 0 mm | - | 558 W/m² | - |
| 1777990386 | 19.44° C | 53% | 1016 hPa | 0 mm | - | 567 W/m² | - |
| 1777989779 | 20° C | 54% | 1016 hPa | 0 mm | - | 555 W/m² | - |
| 1777989476 | 20° C | 54% | 1016.4 hPa | 0 mm | - | 518 W/m² | - |
| 1777989172 | 20° C | 55% | 1016 hPa | 0 mm | - | 497 W/m² | - |
| 1777988868 | 20° C | 57% | 1016 hPa | 0 mm | - | 510 W/m² | - |
| 1777988566 | 18.89° C | 61% | 1016 hPa | 0 mm | - | 491 W/m² | - |
| 1777988262 | 18.33° C | 59% | 1016 hPa | 0 mm | - | 458 W/m² | - |
| 1777987959 | 18.89° C | 62% | 1015.7 hPa | 0 mm | - | 417 W/m² | - |
| 1777987654 | 18.33° C | 70% | 1015.7 hPa | 0 mm | - | 381 W/m² | - |
| 1777987352 | 18.33° C | 71% | 1015.7 hPa | 0 mm | - | 361 W/m² | - |
| 1777987049 | 18.89° C | 67% | 1015.7 hPa | 0 mm | - | 330 W/m² | - |
| 1777986746 | 18.89° C | 64% | 1016 hPa | 0 mm | - | 329 W/m² | - |
| 1777986444 | 17.78° C | 66% | 1016 hPa | 0 mm | - | 266 W/m² | - |
| 1777986143 | 17.22° C | 68% | 1016 hPa | 0 mm | - | 288 W/m² | - |
| 1777985839 | 16.67° C | 71% | 1016 hPa | 0 mm | - | 260 W/m² | - |
* Rain latest hour (hover to see other rain measurements)
** Current wind speed in m/s (hover to see current wind gust speed)